Location: Byhalia Creek
(34.8270°N, 89.8040°W)
Time: 19:32:20
(UTC+00:00)

Geosat - Pass Details

Date: 22 April 2026
Orbit: 758 x 760 km, 108.0° (Epoch: 21 May)

Event Time Altitude Azimuth Distance (km) Brightness Sun altitude
Rises 02:37:04 0° 20° (NNE) 3,223 7.4 -23.2°
Reaches altitude 10° 02:39:22 10° 18° (NNE) 2,294 6.7 -23.5°
Maximum altitude 02:44:19 66° 297° (WNW) 830 4.3 -24.4°
Drops below altitude 10° 02:49:14 10° 216° (SW) 2,281 6.4 -25.2°
Sets 02:51:30 0° 214° (SSW) 3,203 7.2 -25.5°
